Date String (YYYY-MM-DD hh:mm:ss) UTC,Instrument flags,absolute air pressure of the measurement (hPa),sample flow rate (lpm),inlet stack bypass flow (lpm),air temperature of the measurement (°C),ambient temperature measured by the external sensor (°C),aerosol sample conditioner tube jacket temperature (°C),OPC LED temperature (°C),internal box temperature (°C),relative humidity of the measurement (%),span deviation,mass concentration of particles derived from Lorenz-Mie calculation of OPC scattering (μg/m³),mass concentration of particles derived from Lorenz-Mie calculation of OPC scattering (μg/m³),mass concentration of particles derived from Lorenz-Mie calculation of OPC scattering (μg/m³)
DateTimeUTC,F1_M11,P_M11,Q1_M11,Q2_M11,T1_M11,T2_M11,T3_M11,T4_M11,T5_M11,U1_M11,ZSPAN_M11,X0_M11,X2_M11,X1_M11
2024-04-22 11:00:00,SystemResetWarning,0824.7,5.00,000.00,024.0,023.3,000.0,032.4,025.8,013.8,0000.0,0008.05,0002.80,0001.88
2024-04-22 11:01:00,SystemResetWarning,0824.7,5.00,000.00,024.0,023.3,000.0,032.4,025.8,014.1,0000.0,0007.92,0002.78,0001.89
2024-04-22 11:02:00,SystemResetWarning,0824.7,5.00,000.00,024.0,023.3,000.0,032.4,025.7,014.4,0000.0,0007.43,0002.80,0001.90
2024-04-22 11:03:00,SystemResetWarning,0824.7,5.00,000.00,024.0,023.3,000.0,032.4,025.7,014.1,0000.0,0007.51,0002.88,0001.90
2024-04-22 11:04:00,SystemResetWarning,0824.7,5.01,000.00,024.0,023.3,000.0,032.4,025.7,014.2,0000.0,0007.61,0002.91,0001.91
2024-04-22 11:05:00,SystemResetWarning,0824.7,4.99,000.00,024.0,023.3,000.0,032.4,025.7,014.6,0000.0,0008.44,0002.90,0001.91
2024-04-22 11:06:00,SystemResetWarning,0824.5,5.01,000.00,024.0,023.3,000.0,032.4,025.7,014.5,0000.0,0008.52,0002.89,0001.90
2024-04-22 11:07:00,SystemResetWarning,0824.6,4.99,000.00,024.0,023.3,000.0,032.4,025.7,014.2,0000.0,0008.41,0002.83,0001.89
2024-04-22 11:08:00,SystemResetWarning,0824.5,5.00,000.00,024.0,023.3,000.0,032.4,025.8,014.2,0000.0,0008.32,0002.79,0001.88
2024-04-22 11:09:00,SystemResetWarning,0824.5,4.99,000.00,024.0,023.3,000.0,032.4,025.7,014.1,0000.0,0008.23,0002.75,0001.86
2024-04-22 11:10:00,SystemResetWarning,0824.5,4.99,000.00,024.0,023.3,000.0,032.4,025.7,014.4,0000.0,0007.87,0002.73,0001.85
2024-04-22 11:11:00,SystemResetWarning,0824.6,5.02,000.00,024.0,023.3,000.0,032.4,025.7,014.3,0000.0,0007.23,0002.71,0001.85
2024-04-22 11:12:00,SystemResetWarning,0824.6,5.00,000.00,024.0,023.2,000.0,032.4,025.7,014.0,0000.0,0007.05,0002.68,0001.84
2024-04-22 11:13:00,SystemResetWarning,0824.6,5.00,000.00,024.0,023.2,000.0,032.4,025.7,013.9,0000.0,0006.97,0002.70,0001.85
2024-04-22 11:14:00,SystemResetWarning,0824.7,4.99,000.00,024.0,023.2,000.0,032.4,025.7,013.7,0000.0,0006.58,0002.65,0001.85
2024-04-22 11:15:00,SystemResetWarning,0824.6,4.99,000.00,024.0,023.2,000.0,032.4,025.7,013.7,0000.0,0006.31,0002.62,0001.84
2024-04-22 11:16:00,SystemResetWarning,0824.7,5.00,000.00,024.0,023.2,000.0,032.4,025.7,013.7,0000.0,0005.33,0002.65,0001.84
2024-04-22 11:17:00,SystemResetWarning,0824.6,5.01,000.00,024.0,023.2,000.0,032.4,025.7,013.6,0000.0,0005.66,0002.66,0001.85
2024-04-22 11:18:00,SystemResetWarning,0824.6,5.01,000.00,024.0,023.2,000.0,032.4,025.7,013.6,0000.0,0006.61,0002.73,0001.86
2024-04-22 11:19:00,SystemResetWarning,0824.5,5.00,000.00,024.0,023.2,000.0,032.4,025.7,013.7,0000.0,0006.96,0002.77,0001.86
2024-04-22 11:20:00,SystemResetWarning,0824.5,4.99,000.00,024.0,023.2,000.0,032.4,025.7,014.0,0000.0,0007.47,0002.78,0001.86
2024-04-22 11:21:00,SystemResetWarning,0824.6,4.99,000.00,024.0,023.2,000.0,032.4,025.7,013.9,0000.0,0007.58,0002.79,0001.87
2024-04-22 11:22:00,SystemResetWarning,0824.6,5.00,000.00,024.0,023.2,000.0,032.4,025.7,014.4,0000.0,0008.10,0002.79,0001.87
2024-04-22 11:23:00,SystemResetWarning,0824.6,5.00,000.00,024.0,023.2,000.0,032.4,025.7,015.1,0000.0,0008.27,0002.80,0001.86
2024-04-22 11:24:00,SystemResetWarning,0824.5,5.00,000.00,024.0,023.2,000.0,032.4,025.7,015.3,0000.0,0008.30,0002.79,0001.86
2024-04-22 11:25:00,SystemResetWarning,0824.5,5.00,000.00,024.0,023.2,000.0,032.4,025.7,015.1,0000.0,0008.35,0002.77,0001.85
2024-04-22 11:26:00,SystemResetWarning,0824.5,5.00,000.00,024.0,023.2,000.0,032.4,025.7,014.4,0000.0,0008.42,0002.76,0001.84
2024-04-22 11:27:00,SystemResetWarning,0824.5,5.00,000.00,024.0,023.2,000.0,032.4,025.7,014.2,0000.0,0008.18,0002.74,0001.83
2024-04-22 11:28:00,SystemResetWarning,0824.4,5.00,000.00,024.0,023.2,000.0,032.4,025.7,014.1,0000.0,0007.73,0002.69,0001.82
2024-04-22 11:29:00,SystemResetWarning,0824.4,5.00,000.00,024.0,023.2,000.0,032.4,025.7,013.9,0000.0,0007.21,0002.61,0001.81
2024-04-22 11:30:00,SystemResetWarning,0824.4,5.00,000.00,024.0,023.2,000.0,032.4,025.7,013.9,0000.0,0006.73,0002.58,0001.80
2024-04-22 11:31:00,SystemResetWarning,0824.3,5.00,000.00,024.0,023.2,000.0,032.4,025.7,014.3,0000.0,0006.21,0002.57,0001.80
2024-04-22 11:32:00,SystemResetWarning,0824.4,5.00,000.00,024.0,023.2,000.0,032.4,025.7,014.4,0000.0,0006.20,0002.56,0001.79
2024-04-22 11:33:00,SystemResetWarning,0824.4,5.00,000.00,024.0,023.2,000.0,032.4,025.7,014.3,0000.0,0005.24,0002.54,0001.79
2024-04-22 11:34:00,SystemResetWarning,0824.3,5.00,000.00,024.0,023.2,000.0,032.4,025.7,015.0,0000.0,0005.30,0002.59,0001.81
2024-04-22 11:35:00,SystemResetWarning,0824.4,5.00,000.00,024.0,023.2,000.0,032.4,025.7,014.1,0000.0,0005.94,0002.59,0001.81
2024-04-22 11:36:00,SystemResetWarning,0824.3,4.99,000.00,024.0,023.2,000.0,032.4,025.7,013.9,0000.0,0006.07,0002.67,0001.82
2024-04-22 11:37:00,SystemResetWarning,0824.3,5.00,000.00,024.0,023.2,000.0,032.4,025.7,014.0,0000.0,0006.23,0002.73,0001.84
2024-04-22 11:38:00,SystemResetWarning,0824.3,4.99,000.00,024.0,023.2,000.0,032.4,025.7,013.9,0000.0,0006.42,0002.77,0001.85
2024-04-22 11:39:00,SystemResetWarning,0824.3,5.00,000.00,024.0,023.2,000.0,032.4,025.7,014.0,0000.0,0007.82,0002.82,0001.85
2024-04-22 11:40:00,SystemResetWarning,0824.3,5.00,000.00,024.0,023.2,000.0,032.4,025.7,014.1,0000.0,0007.79,0002.85,0001.84
2024-04-22 11:41:00,SystemResetWarning,0824.2,5.01,000.00,024.0,023.2,000.0,032.4,025.7,013.8,0000.0,0007.77,0002.82,0001.83
2024-04-22 11:42:00,SystemResetWarning,0824.2,5.00,000.00,024.0,023.2,000.0,032.4,025.7,013.7,0000.0,0007.69,0002.79,0001.83
2024-04-22 11:43:00,SystemResetWarning,0824.2,5.00,000.00,024.0,023.2,000.0,032.4,025.7,013.9,0000.0,0007.64,0002.78,0001.82
2024-04-22 11:44:00,SystemResetWarning,0824.3,5.00,000.00,024.0,023.2,000.0,032.4,025.7,013.7,0000.0,0007.60,0002.76,0001.82
2024-04-22 11:45:00,SystemResetWarning,0824.2,5.00,000.00,023.9,023.2,000.0,032.4,025.7,013.3,0000.0,0007.53,0002.71,0001.79
2024-04-22 11:46:00,SystemResetWarning,0824.3,5.00,000.00,023.9,023.1,000.0,032.4,025.7,013.1,0000.0,0007.04,0002.68,0001.78
2024-04-22 11:47:00,SystemResetWarning,0824.3,5.00,000.00,023.9,023.1,000.0,032.4,025.6,013.8,0000.0,0007.64,0002.62,0001.78
2024-04-22 11:48:00,SystemResetWarning,0824.3,5.00,000.00,023.9,023.1,000.0,032.4,025.6,014.0,0000.0,0007.50,0002.58,0001.77
2024-04-22 11:49:00,SystemResetWarning,0824.3,5.00,000.00,023.9,023.1,000.0,032.4,025.6,014.0,0000.0,0007.44,0002.55,0001.75
2024-04-22 11:50:00,SystemResetWarning,0824.2,5.00,000.00,023.9,023.1,000.0,032.4,025.6,013.9,0000.0,0005.96,0002.54,0001.75
2024-04-22 11:51:00,SystemResetWarning,0824.3,5.00,000.00,023.9,023.1,000.0,032.4,025.6,013.7,0000.0,0006.02,0002.55,0001.75
2024-04-22 11:52:00,SystemResetWarning,0824.3,5.00,000.00,023.9,023.1,000.0,032.4,025.6,013.3,0000.0,0006.16,0002.58,0001.75
2024-04-22 11:53:00,SystemResetWarning,0824.4,5.00,000.00,023.9,023.1,000.0,032.4,025.6,013.8,0000.0,0006.14,0002.57,0001.74
2024-04-22 11:54:00,SystemResetWarning,0824.4,5.00,000.00,023.9,023.0,000.0,032.4,025.6,012.9,0000.0,0006.19,0002.60,0001.75
2024-04-22 11:55:00,SystemResetWarning,0824.4,4.99,000.00,023.9,023.0,000.0,032.4,025.6,012.7,0000.0,0006.15,0002.57,0001.75
2024-04-22 11:56:00,SystemResetWarning,0824.4,4.99,000.00,023.9,023.0,000.0,032.4,025.6,012.8,0000.0,0006.81,0002.55,0001.75
2024-04-22 11:57:00,SystemResetWarning,0824.3,5.00,000.00,023.9,023.0,000.0,032.4,025.6,013.0,0000.0,0008.05,0002.54,0001.75
2024-04-22 11:58:00,SystemResetWarning,0824.3,5.01,000.00,023.9,023.0,000.0,032.4,025.6,012.8,0000.0,0008.41,0002.58,0001.73
2024-04-22 11:59:00,SystemResetWarning,0824.4,5.01,000.00,023.9,023.0,000.0,032.4,025.6,012.7,0000.0,0008.43,0002.61,0001.72
